User: anonymous   Login
Location: Unspecified
(0.0000°N, 0.0000°E)
Time: 19:54:38
(UTC+00:00)
Language:

BEESAT 4 - Orbit

View from above orbital plane
View from above orbital plane
View from above satellite
View from above satellite

Ground track
Ground track

The orbit data is extracted from the following two-line orbital elements,

1 41619U 16040W   17268.91897739 +.00002554 +00000-0 +11761-3 0  9994
2 41619 097.4520 330.2995 0013578 078.7030 281.5730 15.21143413057902
Epoch (UTC): 25 September 2017 22:03:19
Eccentricity: 0.0013578
inclination: 97.4520°
perigee height: 493 km
apogee height: 512 km
right ascension of ascending node: 330.2995°
argument of perigee: 78.7030°
revolutions per day: 15.21143413
mean anomaly at epoch: 281.5730°
orbit number at epoch: 5790

The dashed part of the orbit path shows where the satellite is in the earth's shadow,  

DLR